Location: Ravensburg
(47.7866°N, 9.6124°E)
Time: 02:06:41
(UTC+02:00)

CAS-6 - Pass Details

Date: 15 March 2026
Orbit: 601 x 618 km, 97.8° (Epoch: 14 April)

Event Time Altitude Azimuth Distance (km) Brightness Sun altitude
Exits shadow 22:22:30 14° 343° (NNW) 1,706 ? -36.4°
Drops below altitude 10° 22:23:07 10° 344° (NNW) 1,957 ? -36.5°
Sets 22:25:18 0° 346° (NNW) 2,866 ? -36.7°
